Theta_e
336 338 339 339 341 342 342 342 343 346 349 353 351 354 357 361 360 355 354 356 354 350 354 355 358 360 363 365 363 359 359 355 356
335 337 338 340 343 343 344 344 344 344 350 354 353 350 353 355 356 358 354 362 356 354 359 356 359 363 363 363 362 362 349 349 353
335 338 340 343 341 343 344 345 346 346 347 347 348 346 348 351 352 355 357 357 358 360 361 363 362 362 361 362 362 361 359 353 356
336 337 340 344 344 345 345 345 345 345 347 348 348 348 348 350 353 355 358 357 359 361 363 365 364 364 363 362 360 360 360 356 357
339 341 342 345 346 347 346 347 348 347 348 349 350 352 353 350 354 357 355 358 359 361 362 365 366 364 363 363 362 360 358 355 355
340 342 343 344 345 346 347 347 350 349 350 350 352 352 351 352 353 355 356 357 359 360 362 364 364 364 362 363 362 362 360 359 357
339 341 342 343 344 345 347 348 348 349 347 352 351 352 353 354 355 356 356 358 360 361 363 363 363 364 365 363 364 363 362 361 359
338 340 340 341 342 344 346 347 348 351 351 352 354 356 355 356 359 360 361 361 361 362 363 363 365 365 364 365 363 361 362 362 359
337 339 340 341 343 345 344 346 347 348 350 351 352 352 353 357 360 360 359 361 362 363 362 363 364 365 365 365 359 346 346 357 360
338 339 339 341 343 344 346 346 350 346 347 350 352 353 356 356 357 356 359 360 360 360 359 360 360 361 361 358 359 339 340 344 359
338 338 338 340 341 342 344 345 344 346 347 350 351 351 349 350 352 354 354 357 356 355 355 355 355 354 354 352 350 335 336 341 357
338 338 337 337 339 341 343 342 344 343 341 340 340 340 343 346 349 350 351 351 353 352 353 353 352 353 353 352 352 332 333 338 350
333 333 334 335 337 337 339 340 338 337 335 335 334 336 337 340 341 343 347 350 350 351 354 352 350 350 348 341 349 333 329 335 345
334 331 334 337 335 334 334 335 334 332 334 332 335 336 337 338 339 339 340 343 348 349 349 349 350 351 349 349 348 347 325 326 344
330 332 333 332 330 330 332 333 332 331 330 332 332 333 333 333 334 333 334 338 340 343 345 346 347 349 348 346 349 332 325 322 325
330 331 331 330 329 331 331 332 332 329 330 330 330 330 330 330 332 332 331 330 332 332 337 335 338 340 341 341 344 347 325 321 323
330 331 330 329 329 328 329 330 329 329 330 330 329 328 328 329 328 326 329 329 328 326 327 328 329 331 335 338 342 344 346 350 336
331 330 330 330 329 328 327 328 327 327 328 329 328 328 327 327 326 326 326 327 327 326 328 322 324 329 330 331 333 339 317 322 344
331 330 330 329 328 326 326 326 327 330 330 330 328 327 326 325 324 324 324 324 325 315 312 309 306 305 312 326 317 310 304 302 303
325 330 329 328 325 325 326 329 329 330 330 328 324 323 326 324 321 324 324 323 323 322 322 313 308 306 304 301 304 300 299 298 300
Wind_Speed
9 11 12 14 17 18 19 19 20 17 16 16 17 17 18 15 15 12 12 12 12 10 10 9 8 9 10 10 5 5 7 1 7
11 7 5 6 12 15 16 17 19 19 15 13 14 17 14 15 15 16 13 12 12 11 11 9 10 11 11 10 11 10 8 7 8
11 9 9 10 7 6 8 12 14 16 16 16 15 15 14 14 15 15 14 13 14 13 12 12 9 11 11 10 11 13 14 9 9
10 10 11 10 10 9 9 8 8 11 13 15 15 16 15 15 13 14 13 13 14 14 13 12 12 11 11 12 12 14 15 13 11
10 9 10 11 12 12 11 9 7 7 8 10 11 11 11 9 12 13 13 13 14 13 13 13 12 12 11 11 12 13 15 14 10
9 9 9 12 12 12 10 9 7 7 6 6 7 8 12 13 13 13 13 13 14 14 14 14 14 14 14 13 14 14 15 14 14
9 8 8 10 12 11 9 7 6 5 4 2 5 5 6 7 10 10 11 12 13 14 14 14 16 16 15 16 16 16 16 16 16
9 8 8 8 9 9 7 6 4 2 2 3 4 2 5 6 7 8 9 10 11 12 13 13 14 14 16 16 15 14 18 18 19
11 10 9 9 9 8 7 7 5 5 5 5 3 3 3 5 5 7 9 10 9 10 11 12 13 14 14 12 9 11 13 16 17
10 10 10 10 10 10 9 8 7 7 5 5 4 4 5 5 3 5 7 8 9 10 10 11 10 10 8 8 10 1 6 11 16
12 11 10 9 9 9 10 9 9 7 7 6 5 5 5 6 6 5 4 6 7 8 9 10 10 11 11 11 12 10 10 13 18
11 10 9 9 10 9 8 8 7 7 8 8 8 9 9 9 9 8 8 7 4 6 8 8 9 11 12 13 13 9 11 10 14
10 9 8 8 9 9 9 8 8 7 8 8 8 9 9 10 10 10 9 9 8 8 6 7 9 10 11 12 13 9 14 12 12
10 9 9 9 9 10 9 7 6 6 6 7 7 7 8 8 9 10 10 10 9 9 9 9 10 11 10 10 11 10 14 16 13
11 10 9 8 8 8 8 7 5 5 6 6 7 8 9 9 9 9 9 11 10 10 10 11 10 10 10 9 11 12 14 17 19
9 9 7 6 7 7 6 6 7 6 6 7 8 8 8 8 9 9 9 10 11 10 10 8 10 10 10 9 8 9 16 19 22
9 8 7 6 5 5 6 6 6 6 6 7 8 7 7 6 8 7 8 8 8 8 9 9 10 9 9 10 9 10 9 8 10
8 8 6 6 5 5 6 6 6 7 7 7 8 8 8 8 7 8 8 7 8 9 9 9 11 11 12 11 8 5 9 8 7
8 7 6 5 5 6 6 6 6 6 7 9 10 10 7 7 7 8 8 8 8 5 11 11 11 11 8 12 12 15 14 12 11
9 8 6 5 5 6 5 6 7 8 8 7 7 7 9 9 8 10 9 9 9 10 9 12 15 15 10 12 11 11 11 14 13
Wind_Direction
171 196 211 217 216 220 215 204 213 208 210 202 207 212 219 223 228 231 233 232 239 237 233 220 209 206 224 225 201 162 172 148 253
103 98 135 196 209 208 213 207 203 205 207 201 208 213 220 228 229 235 246 243 237 241 233 232 212 203 212 204 198 192 178 180 215
94 90 73 70 66 128 171 195 196 199 202 209 211 215 218 225 230 232 241 243 236 243 244 230 211 205 211 209 200 198 197 201 203
90 83 81 83 89 97 111 129 160 186 197 206 213 214 221 226 230 230 228 237 234 235 236 232 230 215 209 206 203 203 203 210 209
92 80 88 94 95 100 109 116 141 163 181 203 215 222 219 238 235 243 234 229 239 225 227 222 225 225 222 212 208 204 211 213 213
111 107 115 110 102 95 101 106 116 143 168 189 237 208 213 212 226 225 232 236 232 232 220 220 218 214 217 213 211 210 208 214 208
118 115 110 108 108 104 104 106 119 140 191 218 190 242 217 229 235 235 239 236 233 232 225 221 216 215 215 213 210 210 214 208 206
146 132 104 98 93 100 115 114 115 124 17 4 3 246 245 235 247 250 244 251 247 239 238 233 237 232 225 224 218 213 209 209 205
154 128 116 101 93 92 86 87 83 74 59 31 356 341 324 313 268 256 261 260 250 251 253 249 249 246 246 246 243 241 198 217 216
130 124 113 103 91 83 69 80 78 66 57 48 42 39 32 22 323 285 279 268 264 261 259 261 259 261 258 258 263 321 191 224 231
124 118 110 102 95 86 74 65 61 57 56 50 39 30 14 4 349 338 329 299 278 277 269 258 247 242 247 254 256 235 204 215 230
118 115 105 93 86 83 72 65 65 61 51 42 31 19 13 4 355 341 328 310 267 247 250 255 256 256 260 260 262 207 207 222 236
120 102 99 96 91 89 88 77 71 63 49 31 17 4 354 349 346 338 327 318 303 295 284 261 255 260 261 257 257 213 205 215 249
123 115 107 92 81 83 78 66 61 54 41 18 355 339 330 330 330 324 312 315 311 298 286 281 275 264 255 250 227 219 195 211 233
134 122 115 111 104 94 77 52 37 40 27 355 338 329 323 323 318 313 313 309 302 300 293 284 278 272 268 255 235 210 194 204 218
131 129 117 108 120 113 86 50 26 9 11 346 333 327 328 324 323 316 315 299 296 289 274 268 286 287 283 284 276 252 214 203 212
138 135 124 119 119 67 55 25 12 1 348 335 323 321 314 313 308 335 306 305 295 294 291 286 285 267 256 270 285 271 265 256 203
129 125 120 93 62 48 37 10 359 355 346 337 324 317 312 307 323 331 319 316 317 310 303 326 318 306 306 303 291 288 343 340 319
132 129 126 104 71 43 23 10 7 1 341 337 331 320 319 334 320 324 325 329 326 246 240 277 278 264 254 289 293 318 339 331 316
115 129 116 87 62 54 47 12 0 6 348 354 345 325 328 344 339 329 325 322 324 325 328 277 243 251 235 219 274 309 309 300 294